Location: Passau
(48.5830°N, 13.4830°E)
Time: 21:04:19
(UTC+02:00)

Explorer 7 - Visible Passes

Search period start: 27 May 2024 00:00
Search period end: 06 June 2024 00:00
Orbit: 467 x 625 km, 50.3° (Epoch: 26 May)

Date Brightness Start Highest point End Pass type
(mag) Time Alt. Az. Time Alt. Az. Time Alt. Az.
27 May 6.9 01:28:05 10° WNW 01:31:56 69° N 01:36:00 10° E visible
27 May 6.7 03:07:46 10° WNW 03:11:40 58° SSW 03:15:48 10° SE visible
27 May 7.0 22:02:12 10° SW 22:05:38 39° SSE 22:09:12 10° E visible
27 May 6.7 23:41:26 10° W 23:45:11 77° NNW 23:49:07 10° ENE visible
28 May 6.8 01:21:13 10° WNW 01:25:04 73° N 01:29:08 10° E visible
28 May 6.9 03:00:55 10° WNW 03:04:44 48° SSW 03:08:46 10° SE visible
28 May 6.7 21:55:07 10° SW 21:58:40 48° SSE 22:02:20 10° ENE visible
28 May 6.8 23:34:34 10° W 23:38:18 71° N 23:42:13 10° ENE visible
29 May 6.7 01:14:20 10° WNW 01:18:11 79° NNE 01:22:14 10° E visible
29 May 7.1 02:54:03 10° W 02:57:46 39° SSW 03:01:39 10° SE visible
29 May 6.6 21:48:05 10° SW 21:51:42 58° SSE 21:55:26 10° ENE visible
29 May 6.9 23:27:40 10° W 23:31:23 68° N 23:35:17 10° E visible
30 May 6.6 01:07:25 10° WNW 01:11:16 87° NNE 01:15:18 10° ESE visible
30 May 7.4 02:47:13 10° W 02:50:45 32° SSW 02:51:21 30° SSW visible
30 May 6.5 21:41:04 10° WSW 21:44:43 70° SSE 21:48:29 10° ENE visible
30 May 6.9 23:20:46 10° W 23:24:29 66° N 23:28:21 10° E visible
31 May 6.5 01:00:29 10° WNW 01:04:18 83° SSW 01:06:17 28° ESE visible
31 May 8.5 02:40:24 10° W 02:41:44 17° WSW 02:41:44 17° WSW visible
31 May 6.9 23:13:50 10° W 23:17:32 66° N 23:21:25 10° E visible
01 Jun 6.5 00:53:31 10° WNW 00:57:19 72° SSW 00:58:16 48° SE visible
01 Jun 9.1 02:33:38 10° W 02:33:45 11° W 02:33:45 11° W visible
01 Jun 6.9 23:06:52 10° W 23:10:35 67° N 23:14:26 10° E visible
02 Jun 6.6 00:46:32 10° WNW 00:50:18 61° SSW 00:50:39 57° S visible
02 Jun 6.8 22:59:53 10° WNW 23:03:36 71° N 23:07:27 10° E visible
03 Jun 6.8 00:39:33 10° WNW 00:43:12 50° SSW 00:43:12 50° SSW visible
03 Jun 6.7 22:52:52 10° WNW 22:56:35 76° NNE 23:00:20 11° E visible
04 Jun 7.2 00:32:34 10° W 00:35:51 40° SW 00:35:51 40° SW visible
04 Jun 6.6 22:45:50 10° WNW 22:49:33 84° NNE 22:53:02 12° ESE visible
05 Jun 7.6 00:25:36 10° W 00:28:33 32° SW 00:28:33 32° SW visible
05 Jun 6.5 22:38:46 10° WNW 22:42:29 87° SSW 22:45:47 13° ESE visible
